Regional Weather Roundup
Issued by NWS New Orleans/Baton Rouge, LA

Home | Current Version | Previous Version | Text Only | Print | Product List | Glossary On
Versions: 1 2 3 4 5 6 7 8 9 10 11 12 13 14 15 16 17 18 19 20 21 22 23 24 25 26 27
000
ASUS44 KLIX 270113
RWRLIX
NEW ORLEANS REGIONAL WEATHER ROUNDUP
NATIONAL WEATHER SERVICE NEW ORLEANS LA
800 PM CDT MON JUN 26 2017

NOTE: "FAIR" INDICATES FEW OR NO CLOUDS BELOW 12,000 FEET WITH NO
      SIGNIFICANT WEATHER AND/OR OBSTRUCTIONS TO VISIBILITY.
      SKY/WX - SKY CONDITION AND SIGNIFICANT WEATHER.
      TMP - AIR TEMPERATURE.     DP    - DEWPOINT TEMPERATURE.
      RH  - RELATIVE HUMIDITY.   PRES  - PRESSURE.
      HI  - HEAT INDEX.          WCI   - WIND CHILL INDEX.

*  THESE STATIONS ARE NOT NWS OR FAA STATIONS AND ARE NOT UNDER
   NWS QUALITY CONTROL.

LAZ038-040-048-061>063-065>067-069-270200-
SOUTHEAST LOUISIANA

CITY           SKY/WX    TMP DP  RH WIND       PRES   REMARKS
N.O. INTL ARPT MOCLDY    81  71  71 S6        30.02R
N.O. LAKEFRONT CLEAR     83  68  60 SE6       30.03R
N.O. DOWNTOWN*   N/A     86  69  56 S7          N/A
RESERVE*         N/A     82  71  68 NE3       30.02R
SLIDELL        CLEAR     80  71  74 CALM      30.02R
BATON ROUGE    CLOUDY    81  68  64 NE3       30.03R
BOOTHVILLE     MOCLDY    81  74  79 E5        30.02S
BELLE CHASSE   MOCLDY    81  72  74 SE6       30.02R
BOGALUSA*        N/A     78  69  75 CALM      30.05R
GALLIANO*      CLOUDY    80  72  75 NE5       30.01S
NEW ROADS*       N/A     80  73  78 CALM      30.03R
GONZALES*        N/A     82  71  69 CALM      30.02R
HAMMOND*       CLOUDY    81  61  50 CALM      30.03R
HOUMA*         NOT AVBL
PORT FOURCHON* CLOUDY   N/A N/A N/A E8        30.01S

$$

MSZ070-080>082-270200-
SOUTHERN MISSISSIPPI

CITY           SKY/WX    TMP DP  RH WIND       PRES   REMARKS
MCCOMB         PTCLDY    79  66  64 CALM      30.04S
GULFPORT       CLOUDY    83  63  50 NE5       30.01R
BILOXI         CLOUDY    80  66  61 NE5       30.02R
PASCAGOULA     CLOUDY    77  68  73 CALM      30.02R
STENNIS ARPT*  PTCLDY    79  72  78 CALM      30.03R

$$

COASTAL OBSERVATIONS
LAKE AND NEARSHORE STATIONS

STATION/POSITION TIME  TEMP    WIND        PRES    WAVE
                       AIR SEA DIR/SP/G            HT/PER
                 (UTC) (F)     (DEG/KT/KT) (MB)    (FT/S)
PASCAGOULA       0048   83      30/  5/  6 1016.2
WAVELAND YACHT   0048   82 82  190/  3/  4 1016.6
GRAND ISLE       0048   82 85   90/  6/ 11 1016.4
SOUTHWEST PASS   0048   83     100/  9/ 11   N/A
NEW CANAL        0048   84 83   80/  2/  4 1016.6
SHELL BEACH      0048   81 87  130/  6/  8 1016.8

OFFSHORE STATIONS

STATION/POSITION TIME  TEMP    WIND        PRES    WAVE
                       AIR SEA DIR/SP/G            HT/PER
                 (UTC) (F)     (DEG/KT/KT) (MB)    (FT/S)
64 S DAUPHIN ISL 0050   81 85   50/  4/  6 1016.5    2/ 4

$$





USA.gov is the U.S. government's official web portal to all federal, state and local government web resources and services.